Tracking 28790 objects as of 19-Apr-2024
HD Live streaming from Space Station
objects crossing your sky now

STARLINK-5079

Track STARLINK-5079 now!
10-day predictions
STARLINK-5079 is classified as:


NORAD ID: 53999
Int'l Code: 2022-125AM
Perigee: 545.9 km
Apogee: 547.8 km
Inclination: 53.2 °
Period: 95.4 minutes
Semi major axis: 6917 km
RCS: Unknown
Launch date: October 5, 2022
Source: United States (US)
Launch site: AIR FORCE WESTERN TEST RANGE (AFWTR)
Your satellite tracking list
Your tracking list is empty




NASA's NSSDC Master Catalog

Two Line Element Set (TLE):
1 53999U 22125AM  24110.19646657  .00003967  00000-0  26708-3 0  9990
2 53999  53.2166  69.2913 0001323  96.6768 263.4375 15.08854807 85448
Source of the keplerian elements: AFSPC